#timestamp,LO_Frequency,Hit,StdDev 
1597834815.2,286047002.6,N
1597834835.0,286047002.2,N
1597834835.9,286047002.2,N
1597834855.8,286047002.8,N
1597834875.6,286047002.4,N
1597834895.4,286047001.8,N
1597834915.3,286047002.2,N
1597834935.1,286047002.0,N
1597834955.9,286047004.3,Y
1597834975.7,286047000.4,P
1597834995.5,286047001.1,N
1597835015.4,286046998.1,P
1597835035.2,286047000.7,N
1597835055.0,286047001.1,N
1597835055.9,286047001.1,N
1597835075.8,286047000.7,N
1597835095.6,286047000.9,N
1597835115.5,286047000.5,N
1597835135.3,286047000.5,N
1597835155.1,286046999.9,N
1597835175.9,286047000.5,N
1597835195.7,286046998.2,N
1597835215.5,286047000.5,N
1597835235.4,286047000.3,N
1597835255.2,286047000.4,N
1597835275.1,286046999.9,N
1597835276.0,286046999.9,N
1597835295.8,286047000.0,N
1597835315.6,286046999.8,N
1597835335.5,286047000.1,N
1597835355.3,286047001.0,N
1597835375.1,286046999.9,N
1597835395.9,286047000.7,N
1597835415.7,286046998.1,N
1597835435.5,286046998.6,N
1597835455.4,286047000.6,N
1597835475.2,286046998.2,N
1597835495.1,286046998.5,N
1597835496.0,286046998.5,N
1597835515.8,286046998.1,N
1597835535.6,286046998.2,N
1597835555.5,286047001.0,N
1597835575.3,286047000.5,N
1597835595.1,286046998.1,N
1597835615.9,286047001.0,N
1597835635.7,286047002.0,N
1597835655.6,286047000.2,N
1597835675.4,286046999.8,N
1597835695.2,286047002.6,N
1597835715.1,286047000.2,N
1597835716.0,286047000.2,N
1597835735.8,286046999.7,N
1597835755.7,286046999.8,N
1597835775.5,286047002.7,N
1597835795.3,286047002.8,N
1597835815.2,286047002.2,N
1597835835.0,286047002.7,N
1597835835.9,286047002.7,N
1597835855.7,286047000.1,N
1597835875.6,286047002.4,N
1597835895.4,286047002.3,N
1597835915.3,286047002.7,N
1597835935.1,286046999.7,N
1597835936.0,286046999.7,N
1597835955.8,286047002.7,N
1597835975.7,286047002.5,N
1597835995.5,286046999.8,N
1597836015.3,286047002.6,N
1597836035.2,286047002.8,N
1597836055.0,286047002.7,N
1597836055.9,286047002.7,N
1597836075.8,286047002.5,N
1597836095.6,286046999.9,N
1597836115.4,286046999.8,N
1597836135.3,286047000.0,N
1597836155.1,286047000.1,N
1597836175.9,286047002.5,N
1597836195.7,286047002.0,N
1597836215.5,286047002.2,N
1597836235.4,286047001.5,N
1597836255.2,286047002.0,N
1597836275.0,286047001.9,N
1597836275.9,286047001.9,N
1597836295.8,286047002.1,N
1597836315.6,286047001.7,N
1597836335.5,286047001.3,N
1597836355.3,286047001.4,N
1597836375.1,286047001.5,N
1597836395.9,286047002.1,N
1597836415.7,286047002.5,N
1597836435.5,286047001.9,N
1597836455.4,286047001.9,N
1597836475.2,286047002.2,N
1597836495.0,286047001.9,N
1597836496.0,286047001.9,N
1597836515.8,286047002.1,N
1597836535.6,286047002.7,Y
1597836555.5,286047000.5,P
1597836575.3,286046999.8,N
1597836595.1,286047002.8,P
1597836615.9,286047000.5,N
1597836635.7,286046998.1,N
1597836655.6,286047000.9,N
1597836675.4,286047000.8,N
1597836695.2,286047000.8,N
1597836715.1,286047000.9,N
1597836716.0,286047000.9,N
1597836735.8,286047000.5,N
1597836755.6,286047000.9,N
1597836775.5,286047000.4,N
1597836795.3,286047000.8,N
1597836815.2,286046998.2,N
1597836835.9,286046998.5,N
1597836855.7,286046998.1,N
1597836875.6,286047001.2,N
1597836895.4,286047000.9,N
1597836915.2,286047000.8,N
1597836935.1,286046998.1,N
1597836936.0,286046998.1,N
1597836955.8,286046998.2,N
1597836975.7,286046998.2,N
1597836995.5,286047001.2,N
1597837015.3,286046998.1,N
1597837035.2,286047000.7,N
1597837055.9,286047000.8,N
1597837075.7,286047001.2,N
1597837095.6,286047001.2,N
1597837115.4,286047001.1,N
1597837135.2,286046998.2,N
1597837155.1,286046998.1,N
1597837156.0,286046998.1,N
1597837175.8,286046998.3,N
1597837195.7,286047001.0,N
1597837215.5,286046998.7,N
1597837235.3,286047000.8,N
1597837255.2,286047001.2,N
1597837275.0,286047000.7,N
1597837275.9,286047000.7,N
1597837295.8,286047001.1,N
1597837315.6,286047000.9,N
1597837335.4,286047000.0,N
1597837355.3,286047000.9,N
1597837375.1,286047000.8,N
1597837395.8,286047001.0,N
1597837415.7,286046999.9,N
1597837435.5,286047000.4,N
1597837455.4,286046999.8,N
1597837475.2,286047000.5,N
1597837495.0,286047001.0,N
1597837495.9,286047001.0,N
1597837515.8,286046998.2,N
1597837535.6,286046998.6,N
1597837555.4,286046998.1,N
1597837575.3,286046998.5,N
1597837595.1,286047001.2,N
1597837615.9,286047001.1,N
1597837635.7,286046999.3,N
1597837655.5,286046998.2,N
1597837675.4,286046998.7,N
1597837695.2,286046999.0,N
1597837715.0,286046999.3,N
1597837715.9,286046999.3,N
1597837735.8,286046999.1,N
1597837755.6,286046996.6,Y
1597837775.5,286046999.1,P
1597837795.3,286046996.5,P
1597837815.1,286046999.2,N
1597837835.9,286046996.6,N
1597837855.7,286046999.5,N
1597837875.5,286046997.0,N
1597837895.4,286046996.7,N
1597837915.2,286046999.6,N
1597837935.1,286046999.3,N
1597837936.0,286046999.3,N
1597837955.8,286046996.8,N
1597837975.6,286046995.0,Y
1597837995.5,286046996.6,P
1597838015.3,286046999.3,N
1597838035.1,286046998.9,N
1597838055.9,286046999.1,N
1597838075.7,286046997.0,Y
1597838095.6,286046999.9,P
1597838115.4,286047000.0,N
1597838135.2,286046999.8,N
1597838155.1,286047000.6,N
1597838156.0,286047000.6,N
1597838175.8,286047000.4,N
1597838195.6,286046998.1,N
1597838215.5,286046998.1,N
1597838235.3,286047000.6,N
1597838255.2,286047001.0,N
1597838275.9,286046999.1,N
1597838295.7,286046999.6,N
1597838315.6,286046998.9,N
1597838335.4,286046998.4,N
1597838355.2,286046998.8,N
1597838375.1,286046998.3,N
1597838376.0,286046998.3,N
1597838395.8,286046998.2,N
